Weather History for Harrisburg, IL

Change the Weather History Date:

Saturday, January 19, 2013

  Actual Average (KMWA) Record (KMWA)
Temperature  
Mean Temperature 46 °F -  
Max Temperature 55 °F 38 °F 63 °F (1974)
Min Temperature 37 °F 19 °F -15 °F (1984)
Degree Days  
Heating Degree Days 19    
Moisture  
Dew Point 33 °F    
Average Humidity 62    
Maximum Humidity 76    
Minimum Humidity 47    
Precipitation  
Precipitation 0.00 in - - ()
Sea Level Pressure  
Sea Level Pressure 30.12 in    
Wind  
Wind Speed 15 mph (SW)    
Max Wind Speed 25 mph    
Max Gust Speed 32 mph    
Visibility 10 miles    
Events      
Averages and records for this station are not official NWS values.
T = Trace of Precipitation, MM = Missing Value Source: NWS Daily Summary

Daily Weather History Graph

Daily Weather History Graph

Search for Another Location

Airport:

Trip Planner

Search our weather history database for the weather conditions in past years. The results will help you decide how hot, cold, wet, or windy it might be!

Date:

Astronomy

Jan. 19, 2013 Rise Set
Actual Time 7:06 AM CST 5:03 PM CST
Civil Twilight 6:38 AM CST 5:32 PM CST
Nautical Twilight 6:06 AM CST 6:04 PM CST
Astronomical Twilight 5:34 AM CST 6:35 PM CST
Moon 11:28 AM CST (1/19) 12:42 AM CST (1/19)
Length of Visible Light 10h 53m
Length of Day
9h 56m
First Quarter, 57% of the Moon is Illuminated
Jan 19
First Quarter
Jan 26
Full
Feb 3
Last Quarter
Feb 10
New
Feb 17
First Quarter

Hourly Weather History & Observations

Time (CST) Temp. Windchill Dew Point Humidity Pressure Visibility Wind Dir Wind Speed Gust Speed Precip Events Conditions
12:15 AM 39.2 °F 31.2 °F 26.6 °F 61% 30.24 in 10.0 mi SSW 13.8 mph 18.4 mph N/A   Clear
12:35 AM 39.2 °F 31.6 °F 26.6 °F 61% 30.24 in 10.0 mi SSW 12.7 mph - N/A   Clear
12:55 AM 39.2 °F 30.5 °F 26.6 °F 61% 30.24 in 10.0 mi SSW 16.1 mph 20.7 mph N/A   Clear
1:15 AM 39.2 °F 30.5 °F 28.4 °F 65% 30.23 in 10.0 mi SSW 16.1 mph 23.0 mph N/A   Clear
1:35 AM 39.2 °F 30.8 °F 28.4 °F 65% 30.24 in 10.0 mi SW 15.0 mph 20.7 mph N/A   Clear
1:55 AM 39.2 °F 32.0 °F 28.4 °F 65% 30.24 in 10.0 mi SW 11.5 mph 20.7 mph N/A   Clear
2:15 AM 37.4 °F 28.9 °F 28.4 °F 70% 30.24 in 10.0 mi SW 13.8 mph 18.4 mph N/A   Clear
2:35 AM 37.4 °F 30.3 °F 28.4 °F 70% 30.24 in 10.0 mi SW 10.4 mph - N/A   Clear
2:55 AM 37.4 °F 30.8 °F 28.4 °F 70% 30.23 in 10.0 mi SSW 9.2 mph - N/A   Clear
3:15 AM 37.4 °F 30.8 °F 28.4 °F 70% 30.23 in 10.0 mi SW 9.2 mph - N/A   Clear
3:35 AM 37.4 °F 30.3 °F 28.4 °F 70% 30.23 in 10.0 mi SW 10.4 mph - N/A   Clear
3:55 AM 37.4 °F 30.3 °F 28.4 °F 70% 30.23 in 10.0 mi SW 10.4 mph - N/A   Clear
4:15 AM 37.4 °F 30.8 °F 26.6 °F 65% 30.23 in 10.0 mi SSW 9.2 mph - N/A   Clear
4:35 AM 37.4 °F 30.3 °F 26.6 °F 65% 30.23 in 10.0 mi SW 10.4 mph - N/A   Clear
4:55 AM 37.4 °F 29.8 °F 28.4 °F 70% 30.22 in 10.0 mi SSW 11.5 mph 17.3 mph N/A   Clear
5:15 AM 37.4 °F 29.3 °F 28.4 °F 70% 30.22 in 10.0 mi SW 12.7 mph 17.3 mph N/A   Clear
5:35 AM 37.4 °F 28.9 °F 28.4 °F 70% 30.21 in 10.0 mi SSW 13.8 mph - N/A   Clear
5:55 AM 37.4 °F 29.8 °F 28.4 °F 70% 30.21 in 10.0 mi SSW 11.5 mph 18.4 mph N/A   Clear
7:15 AM 37.4 °F 29.3 °F 30.2 °F 75% 30.21 in 10.0 mi SSW 12.7 mph - N/A   Clear
7:55 AM 37.4 °F 30.3 °F 30.2 °F 75% 30.20 in 10.0 mi SSW 10.4 mph 20.7 mph N/A   Clear
8:15 AM 39.2 °F 30.8 °F 30.2 °F 70% 30.20 in 10.0 mi SSW 15.0 mph 19.6 mph N/A   Clear
8:35 AM 41.0 °F 32.5 °F 30.2 °F 65% 30.19 in 10.0 mi SSW 17.3 mph 21.9 mph N/A   Clear
9:35 AM 44.6 °F 36.6 °F 32.0 °F 61% 30.18 in 10.0 mi SSW 19.6 mph 25.3 mph N/A   Clear
9:55 AM 44.6 °F 36.1 °F 32.0 °F 61% 30.18 in 10.0 mi SSW 21.9 mph 26.5 mph N/A   Clear
10:15 AM 46.4 °F 38.7 °F 32.0 °F 57% 30.17 in 10.0 mi SSW 20.7 mph 28.8 mph N/A   Clear
10:35 AM 48.2 °F - 32.0 °F 54% 30.16 in 10.0 mi SSW 20.7 mph 27.6 mph N/A   Clear
11:15 AM 50.0 °F - 32.0 °F 50% 30.13 in 10.0 mi SSW 25.3 mph 32.2 mph N/A   Clear
11:35 AM 50.0 °F - 32.0 °F 50% 30.11 in 10.0 mi SSW 20.7 mph 29.9 mph N/A   Clear
11:55 AM 51.8 °F - 32.0 °F 47% 30.09 in 10.0 mi SSW 18.4 mph 28.8 mph N/A   Clear
12:15 PM 51.8 °F - 32.0 °F 47% 30.07 in 10.0 mi SSW 23.0 mph 28.8 mph N/A   Clear
12:35 PM 51.8 °F - 32.0 °F 47% 30.07 in 10.0 mi SSW 20.7 mph 27.6 mph N/A   Clear
12:55 PM 53.6 °F - 33.8 °F 47% 30.06 in 10.0 mi SSW 18.4 mph 25.3 mph N/A   Clear
1:15 PM 53.6 °F - 33.8 °F 47% 30.05 in 10.0 mi SSW 19.6 mph 26.5 mph N/A   Clear
1:35 PM 53.6 °F - 33.8 °F 47% 30.05 in 10.0 mi SW 21.9 mph 27.6 mph N/A   Clear
1:55 PM 53.6 °F - 33.8 °F 47% 30.04 in 10.0 mi SW 24.2 mph 32.2 mph N/A   Clear
2:15 PM 53.6 °F - 33.8 °F 47% 30.03 in 10.0 mi SW 19.6 mph 28.8 mph N/A   Clear
2:35 PM 53.6 °F - 33.8 °F 47% 30.02 in 10.0 mi SSW 21.9 mph 29.9 mph N/A   Clear
2:55 PM 55.4 °F - 35.6 °F 47% 30.02 in 10.0 mi SSW 18.4 mph 26.5 mph N/A   Clear
3:15 PM 53.6 °F - 35.6 °F 51% 30.01 in 10.0 mi SSW 19.6 mph 28.8 mph N/A   Clear
3:35 PM 53.6 °F - 35.6 °F 51% 30.01 in 10.0 mi SW 18.4 mph 32.2 mph N/A   Clear
3:55 PM 53.6 °F - 35.6 °F 51% 30.00 in 10.0 mi SSW 16.1 mph 25.3 mph N/A   Clear
4:15 PM 53.6 °F - 35.6 °F 51% 29.99 in 10.0 mi SSW 18.4 mph 26.5 mph N/A   Clear
4:35 PM 51.8 °F - 35.6 °F 54% 30.02 in 10.0 mi SW 16.1 mph 20.7 mph N/A   Clear
4:55 PM 51.8 °F - 35.6 °F 54% 30.02 in 10.0 mi SW 17.3 mph 23.0 mph N/A   Clear
5:15 PM 50.0 °F - 35.6 °F 58% 30.03 in 10.0 mi SW 19.6 mph 26.5 mph N/A   Clear
5:35 PM 50.0 °F - 35.6 °F 58% 30.03 in 10.0 mi SSW 11.5 mph 20.7 mph N/A   Clear
5:55 PM 50.0 °F - 35.6 °F 58% 30.04 in 10.0 mi SW 16.1 mph 23.0 mph N/A   Clear
6:15 PM 50.0 °F - 37.4 °F 62% 30.04 in 10.0 mi SSW 16.1 mph 23.0 mph N/A   Clear
6:35 PM 48.2 °F - 37.4 °F 66% 30.05 in 10.0 mi SW 16.1 mph 24.2 mph N/A   Clear
6:55 PM 48.2 °F - 37.4 °F 66% 30.05 in 10.0 mi SW 15.0 mph 21.9 mph N/A   Clear
7:15 PM 48.2 °F - 37.4 °F 66% 30.06 in 10.0 mi SW 15.0 mph 19.6 mph N/A   Clear
7:35 PM 48.2 °F - 37.4 °F 66% 30.06 in 10.0 mi SW 12.7 mph 23.0 mph N/A   Clear
7:55 PM 46.4 °F 40.7 °F 37.4 °F 71% 30.06 in 10.0 mi SW 12.7 mph 21.9 mph N/A   Clear
8:15 PM 46.4 °F 39.8 °F 37.4 °F 71% 30.06 in 10.0 mi SSW 16.1 mph 23.0 mph N/A   Clear
8:35 PM 46.4 °F 40.1 °F 37.4 °F 71% 30.06 in 10.0 mi SSW 15.0 mph 25.3 mph N/A   Clear
8:55 PM 46.4 °F 39.8 °F 37.4 °F 71% 30.06 in 10.0 mi SW 16.1 mph 25.3 mph N/A   Clear
9:15 PM 46.4 °F 40.1 °F 37.4 °F 71% 30.07 in 10.0 mi SW 15.0 mph 21.9 mph N/A   Clear
9:35 PM 46.4 °F 41.9 °F 37.4 °F 71% 30.08 in 10.0 mi WSW 9.2 mph - N/A   Clear
9:55 PM 46.4 °F 42.4 °F 37.4 °F 71% 30.09 in 10.0 mi WSW 8.1 mph - N/A   Clear
10:15 PM 44.6 °F 40.7 °F 37.4 °F 76% 30.10 in 10.0 mi SW 6.9 mph - N/A   Clear
10:35 PM 44.6 °F 40.2 °F 35.6 °F 71% 30.09 in 10.0 mi SW 8.1 mph - N/A   Clear
10:55 PM 44.6 °F 40.7 °F 35.6 °F 71% 30.10 in 10.0 mi WSW 6.9 mph - N/A   Clear
11:15 PM 44.6 °F 41.4 °F 35.6 °F 71% 30.10 in 10.0 mi WSW 5.8 mph - N/A   Clear
11:35 PM 42.8 °F 38.6 °F 35.6 °F 76% 30.10 in 10.0 mi WSW 6.9 mph - N/A   Clear
11:55 PM 42.8 °F 38.0 °F 35.6 °F 76% 30.10 in 10.0 mi SW 8.1 mph - N/A   Clear